Regional Weather Roundup
Issued by NWS Grand Forks, ND

Home | Current Version | Previous Version | Graphics & Text | Print | Product List | Glossary On
Versions: 1 2 3 4 5 6 7 8 9 10 11 12 13 14 15 16 17 18 19 20 21 22 23 24 25 26 27 28 29 30 31 32 33 34 35 36 37 38 39 40 41 42 43 44 45 46 47 48 49 50
000
ASUS43 KFGF 250831
RWRFGF
PRAIRIE TO PINES  WEATHER ROUNDUP
NATIONAL WEATHER SERVICE EASTERN NORTH DAKOTA/GRAND FORKS ND
300 AM CDT WED APR 25 2018

 **SATELLITE DATA USED TO AUGMENT SKY COVER AT AUTOMATED STATIONS**
 *****  WEATHER ACROSS EASTERN NORTH DAKOTA  *****

CITY           SKY/WX    TMP DP  RH WIND       PRES   REMARKS
GRAND FORKS    FAIR      32  30  92 S9        30.26F WCI  24
GRAND FRKS AFB FAIR      36  28  72 S8        30.25F
GRAND FRKS NWS   N/A     37  30  75 SW3       30.23F
DEVILS LAKE    FAIR      38  27  64 SW9       30.24F
FARGO          FAIR      30  26  85 SW3       30.29F
WAHPETON ARPT  FAIR      32  27  80 CALM      30.30F
$$

 ***** WEATHER ACROSS CENTRAL AND WESTERN NORTH DAKOTA  *****

CITY           SKY/WX    TMP DP  RH WIND       PRES   REMARKS
BISMARCK       FAIR      36  28  73 CALM      30.29F
MINOT          FAIR      45  29  53 SW12      30.18F
JAMESTOWN      FAIR      32  26  78 S6        30.28F
MINOT AFB      FAIR      42  30  61 SW12      30.17F
GARRISON         N/A     36  31  82 SW8       30.23F
WILLISTON      FAIR      42  33  70 S6        30.20F
DICKINSON      FAIR      36  27  69 SW12      30.24F
HETTINGER      FAIR      29  23  78 W5        30.31F WCI  24
$$

 *****  OTHER AIRPORT OBSERVATIONS IN OUR AREA  *****

CITY           SKY/WX    TMP DP  RH WIND       PRES   REMARKS
WALHALLA       NOT AVBL
GRAFTON AIRPOR FAIR      30  27  86 S8        30.25F WCI  23
VALLEY CITY AR FAIR      30  32 100 SW6       30.30F WCI  24
CANDO          FAIR      37  28  70 S10       30.22F
CAVALIER APRT    N/A     36  27  69 S8        30.21F
GWINNER          N/A     32  30  93 W8        30.30F WCI  25
SHEYENNE NWR     N/A     26  26 100 W3        29.95S
ROLLA          FAIR      37  25  60 SW17      30.18F
 ***** THE ABOVE OBSERVATIONS ARE NON NWS ARE NOT QUALITY
       CONTROLLED AND MAY MIS-REPORT RAIN FOR SNOW...
$$

  *****  WEATHER ACROSS NORTHERN MINNESOTA  *****

CITY           SKY/WX    TMP DP  RH WIND       PRES   REMARKS
FLAG ISLAND    FAIR      28  21  74 S5        30.22F WCI  23
WARROAD        FAIR      30  27  86 S3        30.24F
ROSEAU         FAIR      32  27  80 S7        30.24F
HALLOCK        FAIR      30  27  86 S7        30.23F WCI  23
THF RVR FALLS  FAIR      33  24  69 S8        30.28F
BAUDETTE       FAIR      29  22  75 SW5       30.25F WCI  24
WASKISH        FAIR      23  21  93 CALM      30.26F
CROOKSTON      FAIR      30  27  86 SE7       30.28F WCI  23
STEPHEN NDAWN    N/A     36  28  75 S8          N/A
GREENBUSH NDAW   N/A     34  27  75 S6          N/A
$$
  *****  WEATHER ACROSS CENTRAL AND WEST MINNESOTA  *****

CITY           SKY/WX    TMP DP  RH WIND       PRES   REMARKS
FOSSTON        FAIR      27  19  74 CALM      30.27F
BEMIDJI        FAIR      23  19  85 CALM      30.27F
PARK RAPIDS    FAIR      28  22  78 NW3       30.28F
ELBOW LAKE     FAIR      32  26  78 NE5       30.30F
WADENA         FAIR      30  25  80 CALM      30.28F
DETROIT LAKES  FAIR      32  28  86 CALM      30.29F
MOORHEAD       FAIR      30  27  86 CALM      30.30S
FERGUS FALLS   FAIR      34  25  69 E5        30.28F
MORRIS MN      FAIR      30  28  93 CALM      30.29S
STAPLES        FAIR      28  23  80 CALM      30.29S
$$
  *****  WEATHER ELSEWHERE ACROSS MINNESOTA  *****

CITY           SKY/WX    TMP DP  RH WIND       PRES   REMARKS
DULUTH         FAIR      30  21  69 N6        30.25F WCI  24
INTRNTL FALLS  FAIR      23  20  88 CALM      30.26F
ELY            FAIR      21  19  93 CALM      30.25F
CLOQUET        FAIR      28  19  69 N3        30.26F
WHEATON        FAIR      32  28  86 CALM      30.33S
BRAINERD       FAIR      30  21  69 CALM      30.29F
HIBBING        FAIR      23  20  88 CALM      30.26F
ALEXANDRIA     FAIR      35  23  61 NE7       30.29F
SAINT CLOUD    FAIR      32  26  78 N5        30.28R
MINNEAPOLIS    FAIR      41  27  57 N10       30.25R
$$

  *****  WEATHER ACROSS SOUTH DAKOTA  *****

CITY           SKY/WX    TMP DP  RH WIND       PRES   REMARKS
SIOUX FALLS    FAIR      35  28  75 N9        30.28F
BROOKINGS      FAIR      34  28  79 N3        30.29F
WATERTOWN      FAIR      27  26  96 NW5       30.29F WCI  22
HURON          FAIR      31  28  89 NW5       30.33F
SISSETON         N/A     34  27  75 W8        30.30F
ABERDEEN       FAIR      27  25  92 CALM      30.33F
MITCHELL       FAIR      35  31  85 W5        30.33F
PIERRE         FAIR      32  30  92 SW7       30.34F
MOBRIDGE       FAIR      34  28  79 CALM      30.30F
RAPID CITY     FAIR      27  21  78 NW6       30.36F WCI  20
$$

  *****  SOME WEATHER IN NEARBY STATES *****

CITY           SKY/WX    TMP DP  RH WIND       PRES   REMARKS
GLASGOW MT     FAIR      41  31  67 SE12      30.13F
GREAT FALLS MT FAIR      46  23  40 SW16      30.13F
CHEYENNE WY    FAIR      27  24  89 W7        30.38F WCI  19
SCOTTSBLUFF NE FAIR      28  27  96 N5        30.40F WCI  23
OMAHA NE       CLOUDY    47  44  90 N13       30.21R
DES MOINES IA  CLOUDY    52  41  66 N12       30.17F
DAVENPORT IA   FAIR      52  35  52 N15       30.06R
CHICAGO IL     CLOUDY    46  29  51 N22G35    30.04R
EAU CLAIRE WI  FAIR      37  29  72 N8        30.21S
LA CROSSE WI   FAIR      40  34  79 NW8       30.17R
$$

  *****  SOME NATIONAL WEATHER *****

CITY           SKY/WX    TMP DP  RH WIND       PRES   REMARKS
LA GUARDIA NY  LGT RAIN  51  48  89 NE9       30.03F FOG
RALEIGH NC     MOCLDY    61  61 100 S5        29.74S
ATLANTA GA     FAIR      56  55  97 W8        29.88F
NEW ORLEANS LA FAIR      60  59  96 CALM      30.03S
OKLAHOMA CITY  CLOUDY    51  44  77 N24G33    30.16S
ALBUQUERQUE NM FAIR      48  35  60 E33G47    30.19R
SALT LAKE CITY FAIR      53  25  33 SE9       30.26R
LOS ANGELES CA MOCLDY    55  52  89 W3        30.06R
BOISE ID       FAIR      50  32  50 S12       30.19F
SEATTLE WA     FAIR      58  36  43 N14       30.07S
$$

*** WEATHER ACROSS MANITOBA...SASKATCHEWAN AND ONTARIO ***
                ***ONTARIO***

CITY           SKY/WX    TMP DP  RH WIND       PRES   REMARKS
GERALDTON      CLEAR     23  19  86 NW3       30.21S
THUNDER BAY    PTCLDY    27  21  80 NW5       30.25F WCI  21
SIOUX LOOKOUT  CLEAR     25  21  86 S5        30.21F WCI  19
TORONTO        LGT RAIN  48  46  93 E12       29.94F
BIG TROUT LK   MOCLDY    28  21  74 S8        30.04F WCI  20
PICKLE LAKE    NOT AVBL
DRYDEN         CLEAR     28  21  74 S9        30.21F WCI  20
KENORA         CLEAR     30  21  69 SW8       30.21F WCI  23
$$
                *** MANITOBA***

CITY           SKY/WX    TMP DP  RH WIND       PRES   REMARKS
BRANDON        CLEAR     41  28  60 SW17      30.10F
DAUPHIN        CLEAR     50  28  43 SW18G24   29.99F
ISLAND LAKE    MOCLDY    39  23  52 S14G23    29.90
PILOT MOUND      N/A     36  27  69 S13         N/A
THE PAS        CLOUDY    50  30  46 SW10      29.76F
THOMPSON       MOCLDY    37  28  70 S5        29.70F
WINNIPEG       CLEAR     39  23  52 S18       30.17F
LYNN LAKE      CLEAR     43  30  61 W8        29.68F
CHURCHILL      MOCLDY    34  32  93 S13       29.51F WCI  25
GILLAM         CLOUDY    41  27  56 SW14G24   29.68F
$$
                ***SASKATCHEWAN***

CITY           SKY/WX    TMP DP  RH WIND       PRES   REMARKS
ESTEVAN        MOCLDY    41  30  65 S15       30.13F
KINDERSLEY     MOCLDY    41  28  60 S7        29.89F
LLOYDMINSTER   CLOUDY    48  28  46 N7        29.93R
PRINCE ALBERT  MOCLDY    43  30  61 SW2       29.87F
REGINA         PTCLDY    41  28  60 S15       30.01F
YORKTON        PTCLDY    46  28  49 SW15G21   29.98F
N. BATTLEFORD  CLEAR     43  30  61 N8        29.91S
LA RONGE       CLOUDY    46  28  49 NW3       29.83R
SASKATOON      PTCLDY    46  30  53 SW13      29.89S
SWIFT CURRENT  MOCLDY    48  27  43 SW21      29.96F
$$
NOTE: THESE ARE AUTOMATED STATIONS WITH LIMITED QUALITY CONTROL
      "FAIR" INDICATES FEW OR NO CLOUDS BELOW 12,000 FEET WITH NO
      SIGNIFICANT WEATHER AND/OR OBSTRUCTIONS TO VISIBILITY.
      SKY/WX - SKY CONDITION AND SIGNIFICANT WEATHER.
      TMP - AIR TEMPERATURE.    DP   - DEWPOINT TEMPERATURE.
      RH  - RELATIVE HUMIDITY.  PRES - PRESSURE.
      HX  - HEAT INDEX.         WCI  - WIND CHILL INDEX.
$



USA.gov is the U.S. government's official web portal to all federal, state and local government web resources and services.